SL-12 DEB, 43541

Orbit data source: Space-Track

SL-12 DEB, 43541 is space debris in HEO originally from a launch on Fri, 26 Oct 2007 UTC launched from the Tyuratam Missile And Space Complex (TTMTR). Debris objects in space refer to the collection of defunct objects orbiting the Earth. Examples of debris include non-operational satellites, rocket bodies, and fragments generated from explosions, collisions, or faulty payload assembly.

Loading next visibility...
Identifier
43541, 2007-052AH
Orbit
HEO
Country
Flag of CISCIS
Related business
Manufacturer
RKKE
Mission
Spacecraft
Bus & Motor
Unknown
Mass
Unknown
Launch date (UTC)
2007-10-26 (18 years ago)
Launch vehicle
Unknown
Launch site
Tyuratam Missile And Space Complex (TTMTR)
Object type
Payload
Rocket body
Debris
Shape & HBR
Unknown
Radar Cross Section
Medium (>0.1 m² and <1 m²)

Expand to show TLE details & history
Last TLE update: 2 days ago

TLE from 2 days ago
0 SL-12 DEB
1 43541U 07052AH  25256.55483654  .00000696  00000-0  27500-2 0  9998
2 43541  65.2414  16.0393 5682812 223.9691  73.5175  4.25871963111867
Epoch: 2025-09-13T13:18Z
TLE epoch observation values (Epoch: 2025-09-13T13:18:57.877Z)
Latitude
0.00004°
Longitude
-176.49198°
Altitude
12,063.668 km
Speed
4.294 km/s
True Right ascension
01h 04m 08s
True Declination
0° 00' 00"
Sunlit
Object was in daylight at epoch
Visualization orbit readout
Latitude
Unknown
Longitude
Unknown
Altitude
Unknown
Speed
Unknown
Apparent Right ascension
Unknown
Apparent Declination
Unknown
Sunlit
N/A
Visualization observer readout
Local Sidereal Time
17:55:46
Azimuth
Unknown
Elevation
Unknown
Doppler factor
Unknown
Orbital elements
Apogee altitude
18,833.935 km
Perigee altitude
562.28 km
Semi-major axis
16,076.245 km
Eccentricity
0.56828
Inclination
65.2414°
RAAN
16.0393°
Arg. of periapsis
223.9691°
True anomaly
136.12109°
Mean anomaly
73.5175°
Eccentric anomaly
104.97224°
Mean motion
1.0648 °/min
Orbital period
338.09 mins
BSTAR
0.00275
Loading maneuver chart data...
Computing Atmospheric mass density...
Loading historical data...
Loading historical data...
Loading historical data...
Loading historical data...
Loading historical data...
Loading historical data...
Loading historical data...

Documentation

Showing up to 5 results
|